COSMOS 2251 DEB, 34752

Orbit data source: Space-Track

COSMOS 2251 DEB, 34752 is space debris in LEO originally from a launch on Wed, 16 Jun 1993 UTC launched from the Plesetsk Missile And Space Complex (PKMTR). The debris from Iridium 33, an American commercial communications satellite, has been tracked extensively since its accidental collision with the defunct Russian satellite Cosmos 2251 in 2009. This event, occurring at high speed in low Earth orbit (LEO), generated thousands of pieces of space debris, significantly increasing the risk of further collisions. The Iridium 33 debris cloud has impacted space traffic management and orbital debris mitigation strategies, making it a subject of ongoing study in space situational awareness.

Loading next visibility...
Identifier
34752, 1993-036ZW
Orbit
LEO
Country
Flag of CISCIS
Related business
Manufacturer
Unknown
Mission
Spacecraft
Bus & Motor
Unknown
Mass
Unknown
Launch date (UTC)
1993-06-16 (33 years ago)
Launch vehicle
Unknown
Launch site
Plesetsk Missile And Space Complex (PKMTR)
Object type
Payload
Rocket body
Debris
Shape & HBR
Unknown shape, 0.1 m
Radar Cross Section
Small (<0.1 m²)

Expand to show TLE details & history
Last TLE update: 19 hours ago

TLE from 19 hours ago
0 COSMOS 2251 DEB
1 34752U 93036ZW  26061.81447842  .00015203  00000-0  11157-2 0  9993
2 34752  74.0119 197.3052 0049473 304.7954  54.8583 15.02491552910514
Epoch: 2026-03-02T19:32Z
TLE epoch observation values (Epoch: 2026-03-02T19:32:50.935Z)
Latitude
-0.00002°
Longitude
103.49047°
Altitude
542.261 km
Speed
7.602 km/s
True Right ascension
13h 09m 13s
True Declination
0° 00' 00"
Sunlit
Object was in full shadow at epoch
Visualization orbit readout
Latitude
Unknown
Longitude
Unknown
Altitude
Unknown
Speed
Unknown
Apparent Right ascension
Unknown
Apparent Declination
Unknown
Sunlit
N/A
Visualization observer readout
Local Sidereal Time
18:11:41
Azimuth
Unknown
Elevation
Unknown
Doppler factor
Unknown
Orbital elements
Apogee altitude
591.078 km
Perigee altitude
522.46 km
Semi-major axis
6,934.906 km
Eccentricity
0.00495
Inclination
74.0119°
RAAN
197.3052°
Arg. of periapsis
304.7954°
True anomaly
55.32354°
Mean anomaly
54.8583°
Eccentric anomaly
55.09075°
Mean motion
3.75822 °/min
Orbital period
95.79 mins
BSTAR
0.0011157
Loading maneuver chart data...
Computing Atmospheric mass density...

Documentation

Showing up to 5 results
|